EW2725 Weather Reports


Display with metric or nautical units.
time (UTC)temp
F
wind
direction
speed
MPH
gust
MPH
rain 1hr
in
rain 24hr
in
rain mn
in
humidity
%
barometer
mb
20260831230016 69 264 2.0 0.0 0.00 0.00 0.05 76 1100.1
20260831224649 69 264 1.0 0.0 0.00 0.00 0.05 75 1100.1
20260831223143 69 264 1.0 0.0 0.00 0.00 0.05 74 1100.1
20260831221644 70 264 0.0 0.0 0.00 0.00 0.05 72 1100.1
20260831220001 70 264 0.0 0.0 0.00 0.00 0.05 71 1100.1
20260831214632 71 264 1.0 0.0 0.00 0.00 0.05 70 1100.1
20260831213154 71 264 2.0 0.0 0.00 0.00 0.05 69 1100.1
20260831211513 71 264 1.0 0.0 0.00 0.00 0.05 69 1100.1
20260831210007 70 264 2.0 0.0 0.00 0.00 0.05 73 1100.1
20260831204506 70 264 2.0 0.0 0.00 0.00 0.05 71 1100.1
20260831203150 69 264 2.0 0.0 0.00 0.00 0.05 69 1100.1
20260831201624 69 264 4.0 0.0 0.00 0.00 0.05 69 1100.1
20260831200142 69 264 3.0 0.0 0.00 0.00 0.05 69 1100.1
20260831194504 69 264 2.0 0.0 0.00 0.00 0.05 69 1100.1
20260831193100 69 5 3.0 0.0 0.00 0.00 0.05 71 1100.1
20260831191614 70 29 2.0 0.0 0.00 0.00 0.05 68 1100.1
20260831190135 70 32 2.0 0.0 0.00 0.00 0.05 69 1100.1
20260831184627 70 16 3.0 0.0 0.00 0.00 0.05 69 1100.1
20260831183129 70 336 4.0 0.0 0.00 0.00 0.05 68 1100.1
20260831181504 70 31 1.0 0.0 0.00 0.00 0.05 67 1100.1
20260831180014 70 52 2.0 0.0 0.00 0.00 0.05 66 1100.1
20260831174508 70 82 2.0 0.0 0.00 0.00 0.05 65 1100.1
20260831173135 70 5 4.0 0.0 0.00 0.00 0.05 66 1100.1
20260831171626 70 123 2.0 0.0 0.00 0.00 0.05 66 1100.1
20260831170008 70 274 2.0 0.0 0.00 0.00 0.05 68 1100.1
20260831164633 70 265 2.0 0.0 0.00 0.00 0.05 69 1100.1
20260831163108 70 347 4.0 0.0 0.00 0.00 0.05 68 1100.1
20260831161632 70 337 2.0 0.0 0.00 0.00 0.05 69 1100.1
20260831160129 70 80 3.0 0.0 0.00 0.00 0.05 66 1100.1
20260831153001 70 17 5.0 0.0 0.00 0.00 0.05 65 1100.1
20260831140024 68 9 4.0 0.0 0.00 0.00 0.05 73 1100.1
20260831131629 67 360 6.0 0.0 0.00 0.00 0.05 77 1100.1
20260831130138 67 349 4.0 0.0 0.00 0.00 0.05 76 1100.1
20260831124506 67 10 5.0 0.0 0.00 0.00 0.05 78 1100.1
20260831123103 67 53 5.0 0.0 0.00 0.00 0.05 81 1100.1
20260831121615 66 5 4.0 0.0 0.00 0.00 0.05 82 1100.1
20260831120151 66 33 4.0 0.0 0.00 0.00 0.05 86 1100.1
20260831114625 66 21 2.0 0.0 0.00 0.00 0.05 87 1100.1
20260831113010 65 27 3.0 0.0 0.00 0.00 0.05 88 1100.1
20260831111516 65 5 2.0 0.0 0.00 0.00 0.05 90 1100.1
20260831110115 64 27 1.0 0.0 0.00 0.00 0.05 90 1100.1
20260831104626 65 9 5.0 0.0 0.00 0.00 0.05 91 1100.1
20260831103127 65 18 2.0 0.0 0.00 0.00 0.05 91 1100.1
20260831101513 65 9 4.0 0.0 0.00 0.00 0.05 91 1100.1
20260831100120 65 15 3.0 0.0 0.00 0.00 0.05 91 1100.1
20260831094622 65 235 2.0 0.0 0.00 0.00 0.05 91 1100.1
20260831093002 65 235 3.0 0.0 0.00 0.00 0.05 91 1100.1
20260831091613 65 235 3.0 0.0 0.00 0.00 0.05 91 1100.1
20260831090120 65 235 3.0 0.0 0.00 0.00 0.05 91 1100.1
20260831084626 65 235 2.0 0.0 0.00 0.00 0.04 91 1100.1
20260831083125 66 235 2.0 0.0 0.00 0.00 0.04 91 1100.1
20260831081507 66 235 0.0 0.0 0.00 0.00 0.04 91 1100.1
20260831080052 66 235 0.0 0.0 0.00 0.00 0.04 91 1100.1
20260831074515 66 235 1.0 0.0 0.00 0.00 0.04 91 1100.1
20260831073111 66 235 0.0 0.0 0.00 0.00 0.04 91 1100.1
20260831071623 66 235 0.0 0.0 0.00 0.00 0.04 91 1100.1
20260831070135 67 235 0.0 0.0 0.00 0.00 0.04 91 1100.1
20260831064554 67 235 0.0 0.0 0.00 0.00 0.04 91 1100.1
20260831063111 67 235 0.0 0.0 0.00 0.00 0.04 91 1100.1
20260831061627 67 235 0.0 0.0 0.00 0.00 0.04 91 1100.1
20260831060004 67 235 0.0 0.0 0.00 0.00 0.04 90 1100.1
20260831054517 68 235 0.0 0.0 0.00 0.00 0.04 91 1100.1
20260831053155 68 235 0.0 0.0 0.00 0.00 0.04 90 1100.1
20260831051624 68 235 0.0 0.0 0.00 0.00 0.04 90 1100.1
20260831050134 68 235 0.0 0.0 0.00 0.00 0.03 90 1100.1
20260831044641 69 235 2.0 0.0 0.00 0.00 0.22 90 1100.1
20260831043002 69 235 0.0 0.0 0.00 0.00 0.21 90 1100.1
20260831041618 69 235 0.0 0.0 0.00 0.00 0.21 90 1100.1
20260831040107 69 235 0.0 0.0 0.00 0.00 0.21 89 1100.1
20260831034612 69 235 0.0 0.0 0.00 0.00 0.12 89 1100.1
20260831033118 69 235 1.0 0.0 0.00 0.00 0.03 88 1100.1
20260831031635 69 235 1.0 0.0 0.00 0.00 0.02 88 1100.1
20260831030110 69 235 1.0 0.0 0.00 0.00 0.02 88 1100.1
20260831024611 69 235 1.0 0.0 0.00 0.00 0.02 87 1100.1
20260831023123 70 235 0.0 0.0 0.00 0.00 0.02 86 1100.1
20260831021633 70 235 1.0 0.0 0.00 0.00 0.01 85 1100.1
20260831020136 71 235 1.0 0.0 0.00 0.00 0.00 84 1100.1
20260831014503 71 235 1.0 0.0 0.00 0.00 0.00 84 1100.1
20260831013017 71 235 2.0 0.0 0.00 0.00 0.00 84 1100.1
20260831011615 71 235 2.0 0.0 0.00 0.00 0.00 84 1100.1
20260831010129 71 242 2.0 0.0 0.00 0.00 0.00 83 1100.1
20260831004636 71 239 2.0 0.0 0.00 0.00 0.00 82 1100.1
20260831003003 72 218 2.0 0.0 0.00 0.00 0.00 80 1100.1
20260831001607 72 234 2.0 0.0 0.00 0.00 0.00 79 1100.1
20260831000116 72 232 3.0 0.0 0.00 0.00 0.00 78 1100.1
20260830234625 72 233 1.0 0.0 0.00 0.00 0.00 77 1100.1
20260830233136 73 227 1.0 0.0 0.00 0.00 0.00 75 1100.1
20260830231513 73 236 2.0 0.0 0.00 0.00 0.00 74 1100.1